TimeCST,TemperatureF,Dew PointF,Humidity,Sea Level PressureIn,VisibilityMPH,Wind Direction,Wind SpeedMPH,Gust SpeedMPH,PrecipitationIn,Events,Conditions,WindDirDegrees,DateUTC
12:15 AM,33.8,28.8,82,29.87,7.0,NNE,8.1,-,N/A,,Clear,30,2013-02-26 06:15:00
12:35 AM,33.4,28.9,84,29.86,7.0,NE,6.9,-,N/A,,Clear,40,2013-02-26 06:35:00
12:55 AM,33.4,28.4,82,29.85,7.0,NNE,9.2,-,N/A,,Scattered Clouds,30,2013-02-26 06:55:00
1:15 AM,33.3,28.4,82,29.84,7.0,NNE,11.5,-,N/A,,Scattered Clouds,30,2013-02-26 07:15:00
1:35 AM,33.8,28.0,79,29.83,7.0,NE,10.4,-,N/A,,Scattered Clouds,40,2013-02-26 07:35:00
1:55 AM,33.8,28.0,79,29.83,7.0,NNE,9.2,-,N/A,,Scattered Clouds,30,2013-02-26 07:55:00
2:15 AM,33.4,28.4,82,29.81,7.0,NNE,11.5,18.4,N/A,,Mostly Cloudy,20,2013-02-26 08:15:00
2:35 AM,33.4,28.2,81,29.80,7.0,NNE,12.7,16.1,N/A,,Scattered Clouds,20,2013-02-26 08:35:00
2:55 AM,33.3,28.2,82,29.79,5.0,NNE,13.8,19.6,N/A,,Haze,30,2013-02-26 08:55:00
3:15 AM,33.4,28.2,81,29.77,5.0,NNE,12.7,17.3,N/A,,Haze,30,2013-02-26 09:15:00
3:35 AM,33.3,27.9,81,29.77,5.0,NNE,12.7,17.3,N/A,,Haze,30,2013-02-26 09:35:00
3:55 AM,33.3,27.9,81,29.77,5.0,NNE,11.5,18.4,N/A,,Haze,30,2013-02-26 09:55:00
4:15 AM,32.4,28.4,85,29.78,1.2,NNE,11.5,19.6,N/A,Snow,Light Snow,30,2013-02-26 10:15:00
4:35 AM,32.0,30.0,92,29.77,1.0,NNE,12.7,16.1,N/A,Snow,Light Snow,30,2013-02-26 10:35:00
4:55 AM,31.8,30.2,94,29.76,0.8,NNE,12.7,18.4,N/A,Snow,Snow,20,2013-02-26 10:55:00
5:15 AM,31.5,30.2,95,29.74,0.8,North,15.0,19.6,0.01,Snow,Snow,10,2013-02-26 11:15:00
5:35 AM,31.5,30.2,95,29.74,1.8,NNE,13.8,23.0,0.01,Snow,Light Snow,20,2013-02-26 11:35:00
5:55 AM,31.5,30.0,94,29.74,3.0,North,15.0,23.0,0.01,Snow,Light Snow,10,2013-02-26 11:55:00
6:15 AM,31.6,30.0,94,29.73,4.0,North,13.8,21.9,N/A,,Overcast,10,2013-02-26 12:15:00
6:35 AM,31.6,29.7,92,29.74,5.0,North,11.5,19.6,N/A,,Mostly Cloudy,10,2013-02-26 12:35:00
6:55 AM,31.8,29.8,92,29.75,5.0,North,13.8,20.7,N/A,,Mostly Cloudy,10,2013-02-26 12:55:00
7:15 AM,32.0,29.8,92,29.76,2.5,NNE,9.2,17.3,N/A,Snow,Light Snow,20,2013-02-26 13:15:00
7:35 AM,32.0,29.8,92,29.75,2.0,North,13.8,20.7,N/A,Snow,Light Snow,10,2013-02-26 13:35:00
7:55 AM,31.6,29.5,92,29.75,3.0,North,16.1,21.9,N/A,,Overcast,360,2013-02-26 13:55:00
8:15 AM,31.8,29.3,90,29.73,1.2,North,18.4,25.3,N/A,Snow,Light Snow,350,2013-02-26 14:15:00
8:35 AM,31.6,29.3,91,29.73,2.5,North,15.0,24.2,N/A,Snow,Light Snow,360,2013-02-26 14:35:00
9:15 AM,32.0,28.4,87,29.71,5.0,North,17.3,28.8,N/A,,Clear,10,2013-02-26 15:15:00
9:35 AM,33.1,27.5,80,29.70,7.0,North,19.6,28.8,N/A,,Clear,10,2013-02-26 15:35:00
9:55 AM,33.1,26.6,77,29.68,7.0,North,25.3,33.4,N/A,,Clear,10,2013-02-26 15:55:00
10:15 AM,33.3,27.0,78,29.68,7.0,North,19.6,26.5,N/A,,Clear,10,2013-02-26 16:15:00
10:35 AM,33.6,27.0,77,29.69,7.0,NNE,17.3,29.9,N/A,,Clear,20,2013-02-26 16:35:00
10:55 AM,34.3,26.8,74,29.69,10.0,North,15.0,28.8,N/A,,Clear,10,2013-02-26 16:55:00
11:15 AM,34.7,27.0,73,29.69,10.0,NNE,17.3,21.9,N/A,,Clear,20,2013-02-26 17:15:00
11:35 AM,34.2,26.8,74,29.68,10.0,NNE,18.4,26.5,N/A,,Clear,20,2013-02-26 17:35:00
11:55 AM,34.0,27.0,75,29.68,10.0,NNE,19.6,27.6,N/A,,Scattered Clouds,20,2013-02-26 17:55:00
12:15 PM,33.8,27.7,78,29.67,2.0,North,20.7,27.6,N/A,Snow,Light Snow,10,2013-02-26 18:15:00
12:35 PM,32.9,28.8,85,29.65,1.0,North,20.7,31.1,N/A,Snow,Light Snow,10,2013-02-26 18:35:00
12:55 PM,32.9,29.1,86,29.65,1.0,North,20.7,31.1,N/A,Snow,Light Snow,10,2013-02-26 18:55:00
1:15 PM,33.4,28.4,82,29.64,5.0,North,19.6,29.9,N/A,Snow,Light Snow,10,2013-02-26 19:15:00
1:35 PM,33.1,29.1,85,29.64,0.8,North,19.6,32.2,N/A,Snow,Light Snow,10,2013-02-26 19:35:00
1:55 PM,32.9,30.9,92,29.64,0.8,North,18.4,27.6,N/A,Snow,Light Snow,10,2013-02-26 19:55:00
2:15 PM,32.9,30.7,92,29.64,0.8,North,20.7,28.8,N/A,Snow,Light Snow,10,2013-02-26 20:15:00
2:35 PM,32.9,30.9,92,29.65,0.8,North,18.4,26.5,N/A,Snow,Light Snow,10,2013-02-26 20:35:00
2:55 PM,32.9,31.1,93,29.66,1.0,North,17.3,25.3,N/A,Snow,Light Snow,10,2013-02-26 20:55:00
3:15 PM,32.4,30.9,94,29.66,1.0,North,18.4,28.8,N/A,Snow,Light Snow,10,2013-02-26 21:15:00
3:35 PM,32.4,31.1,95,29.68,0.5,North,16.1,26.5,N/A,Snow,Light Snow,360,2013-02-26 21:35:00
3:55 PM,32.4,31.1,95,29.69,0.8,North,15.0,21.9,N/A,Snow,Light Snow,10,2013-02-26 21:55:00
4:15 PM,32.5,31.1,94,29.69,0.8,North,17.3,24.2,N/A,Snow,Light Snow,10,2013-02-26 22:15:00
4:35 PM,32.4,31.1,95,29.70,1.0,North,15.0,23.0,N/A,Snow,Light Snow,10,2013-02-26 22:35:00
4:55 PM,32.0,31.1,96,29.70,0.5,North,13.8,23.0,N/A,Snow,Light Snow,10,2013-02-26 22:55:00
5:15 PM,32.0,30.9,96,29.71,0.5,North,15.0,21.9,N/A,Snow,Light Snow,10,2013-02-26 23:15:00
5:35 PM,32.0,31.1,96,29.71,0.5,North,13.8,20.7,N/A,Snow,Light Snow,360,2013-02-26 23:35:00
5:55 PM,32.0,31.1,96,29.72,0.5,North,13.8,19.6,N/A,Snow,Snow,360,2013-02-26 23:55:00
6:15 PM,31.8,30.7,96,29.72,1.2,North,10.4,18.4,N/A,Snow,Light Snow,360,2013-02-27 00:15:00
6:35 PM,32.0,30.9,96,29.73,2.5,North,13.8,19.6,N/A,Snow,Light Snow,350,2013-02-27 00:35:00
6:55 PM,32.0,30.9,96,29.74,1.2,North,13.8,18.4,N/A,Snow,Light Snow,360,2013-02-27 00:55:00
7:15 PM,32.0,31.1,96,29.75,1.2,North,11.5,-,N/A,Snow,Light Snow,350,2013-02-27 01:15:00
7:35 PM,32.0,31.1,96,29.75,1.5,North,11.5,17.3,N/A,Snow,Light Snow,350,2013-02-27 01:35:00
7:55 PM,32.0,31.1,96,29.75,2.0,NNW,11.5,17.3,N/A,Snow,Light Snow,340,2013-02-27 01:55:00
8:15 PM,32.0,31.1,96,29.76,1.8,North,10.4,19.6,N/A,Snow,Light Snow,350,2013-02-27 02:15:00
8:35 PM,32.0,31.1,96,29.76,1.5,NNW,13.8,17.3,N/A,Snow,Light Snow,340,2013-02-27 02:35:00
8:55 PM,32.0,31.1,96,29.76,1.2,NNW,13.8,-,N/A,Snow,Light Snow,340,2013-02-27 02:55:00
9:15 PM,32.0,31.3,97,29.77,1.2,North,12.7,-,N/A,Snow,Light Snow,350,2013-02-27 03:15:00
9:35 PM,32.0,31.1,96,29.76,1.2,NNW,15.0,21.9,N/A,Snow,Light Snow,340,2013-02-27 03:35:00
9:55 PM,32.0,31.5,98,29.76,1.2,North,13.8,24.2,N/A,Snow,Light Snow,360,2013-02-27 03:55:00
10:15 PM,32.0,31.5,98,29.76,1.8,North,13.8,20.7,N/A,Snow,Light Snow,350,2013-02-27 04:15:00
10:35 PM,32.0,31.3,97,29.77,2.0,North,12.7,16.1,N/A,Snow,Light Snow,350,2013-02-27 04:35:00
10:55 PM,32.0,31.5,98,29.77,1.0,NNW,10.4,17.3,N/A,Snow,Light Snow,340,2013-02-27 04:55:00
11:15 PM,32.0,31.1,96,29.76,1.2,NNW,10.4,-,N/A,Snow,Light Snow,340,2013-02-27 05:15:00
11:35 PM,31.8,30.9,96,29.76,1.8,NNW,12.7,-,N/A,Snow,Light Snow,330,2013-02-27 05:35:00
11:55 PM,31.5,30.6,96,29.76,1.8,NNW,12.7,-,N/A,Snow,Light Snow,330,2013-02-27 05:55:00